Terug naar catalogus

STARLINK-37481

ActiefCommunicatieVLEO
NORAD 100032·PAYLOAD·🇺🇸 United States

Gelanceerd Jul 14, 2026 vanaf Cape Canaveral Space Force Station

Loading…

Volgende Passages (komende 24 uur)

TLE

VersSource: Space-Track

Epoch: Sep 14, 2026, 09:26 UTC

1 A0032U 26161E   26257.39333153  .00020625  00000-0  61988-3 0  9993
2 A0032  53.1608  26.2080 0002361  87.6279 272.4994 15.34398906  9676

Volg STARLINK-37481 in realtime met AllMySat

Download on the App Store